星链-33774 (STARLINK-33774)

导读 | 豆包AI

STARLINK-33774是美国于2025年4月28日发射的星链卫星,隶属于SpaceX公司打造的星链卫星互联网星座。星链系统旨在为全球提供低延迟、高速率的宽带互联网服务,该卫星入轨后,将和其他星链卫星组网,进一步扩展星座覆盖范围,推进全球卫星互联网络的部署进程。

基本信息
目录编号:
63721
目录名称:
STARLINK-33774
国际标识:
2025-087AA
轨道中心:
EARTH
卫星名称:
星链-33774
卫星全名:
星链-33774 (STARLINK-33774)
卫星状态:
在轨 (已飞行320 天)
发射日期:
2025-04-28 UTC
国别 :
美国 (US)
星等 :
--
轨道信息
数据来源 国际轨道数据 AOE轨道数据
星历时间 2026-03-14T21:34:27+0800
6小时前
查看轨道信息
2026-03-10T11:00:00+0800
4天前
查看轨道信息
半长轴 6853.351km 6853.25km
偏心率 0.0001129 0.000142
轨道倾角 53.157° 53.156°
近地点辐角 115.176° 47.395°
升交点赤经 197.083° 217.711°
平近点角 244.936° 317.195°
近地点 474.44km 474.139km
远地点 475.988km 476.087km
周期 94.105分钟 94.103分钟
每日圈数 15.302004 15.302344
详细信息
固有亮度:
5
最大亮度:
2.5
卫星平台:
Starlink V1.0
覆盖范围:
全球
运营商:
太空探索技术公司
运营商所在国:
美国
制造商(研发单位):
太空探索技术公司
制造商所在国:
美国
使用方式:
暂无
卫星简介
Starlink 计划是 SpaceX 推出的全球卫星互联网项目,通过发射低轨道卫星,为全球尤其是偏远地区提供高速、低延迟的互联网服务。自 2019 年起,Starlink 已部署数千颗卫星,旨在缩小全球数字鸿沟,推动互联网普及。该项目还为军事、航空等行业提供通信支持,带来广泛经济效益。
2D轨道图
3D轨道图
轨道高度分析图
轨道倾角分析图
轨道综合分析图
查看轨道综合分析图